Simultaneous Nadir Overpasses (SNOs) Predictions

Prediction of SNOs near US between AQUA and NPP Satellite Orbit:

Table of predicted SNOs near US for the next 10.0 days since TLE Epoch: 11/16/2019
Index Date (AQUA) Time (AQUA) AQUA Lat,Lon Date (NPP) Time (NPP) NPP Lat,Lon Distance(km) Time Diff (sec)
1 11/17/2019 06:30:10 46.38, -65.04 11/17/2019 06:30:34 46.79, -67.05 160.17 24
2 11/17/2019 08:08:04 49.88, -88.37 11/17/2019 08:11:02 50.35, -90.90 188.10 178
3 11/17/2019 09:46:57 49.89,-113.09 11/17/2019 09:52:29 50.52,-116.20 232.50 332
4 11/19/2019 19:06:13 49.99, -92.56 11/19/2019 19:01:17 49.65, -94.41 138.27 296
5 11/19/2019 20:45:06 49.99,-117.28 11/19/2019 20:42:45 49.54,-119.73 183.55 141
6 11/22/2019 08:34:55 20.02,-101.89 11/22/2019 08:26:35 18.05,-102.55 229.60 500
7 11/22/2019 10:11:50 27.13,-124.90 11/22/2019 10:05:28 27.25,-125.62 72.25 382
8 11/25/2019 07:18:36 49.89, -76.00 11/25/2019 07:20:13 50.33, -78.22 165.81 97
9 11/25/2019 08:57:29 49.89,-100.72 11/25/2019 09:01:41 50.44,-103.55 210.30 252




NCC Satellite Simultaneous Nadir Overpasses (SNOs) Prediction Service
